Location: Derby
(52.9213°N, 1.4761°W)
Time: 14:21:32
(UTC+01:00)

Vanguard 1 Rocket - All Passes

Search period start: 18 May 2025 00:00
Search period end: 28 May 2025 00:00
Orbit: 651 x 4216 km, 34.3° (Epoch: 17 May)

Date Brightness Start Highest point End Pass type
(mag) Time Alt. Az. Time Alt. Az. Time Alt. Az.
18 May - 10:42:05 10° S 10:55:43 21° SE 11:11:21 10° E daylight
18 May - 13:02:02 10° SW 13:22:27 40° SSE 13:43:53 10° E daylight
18 May - 15:28:19 10° WSW 15:51:39 47° S 16:11:24 10° ESE daylight
18 May - 17:58:40 10° W 18:19:49 36° SSW 18:35:12 10° SSE daylight
18 May - 20:35:18 10° W 20:44:23 14° WSW 20:51:55 10° SSW daylight
19 May - 09:37:08 10° SE 09:43:03 12° ESE 09:49:26 10° ESE daylight
19 May - 11:50:15 10° SSW 12:08:02 33° SE 12:28:33 10° E daylight
19 May - 14:14:14 10° SW 14:36:29 46° S 14:57:57 10° ESE daylight
19 May - 16:42:44 10° W 17:05:38 43° SSW 17:23:37 10° SE daylight
19 May - 19:15:30 10° W 19:32:02 24° SW 19:44:30 10° S daylight
20 May - 10:39:59 10° S 10:54:25 24° SE 11:11:48 10° E daylight
20 May - 13:01:10 10° SW 13:21:27 43° SSE 13:43:38 10° E daylight
20 May - 15:27:44 10° WSW 15:50:47 47° S 16:11:04 10° ESE daylight
20 May - 17:58:15 10° W 18:18:48 33° SW 18:34:27 10° SSE daylight
20 May - 20:37:54 10° WSW 20:43:06 11° WSW 20:47:47 10° SW daylight
21 May - 09:32:26 10° SSE 09:41:38 15° ESE 09:52:19 10° E daylight
21 May - 11:49:10 10° SSW 12:06:55 36° SSE 12:28:21 10° E daylight
21 May - 14:13:39 10° WSW 14:35:36 47° S 14:57:37 10° ESE daylight
21 May - 16:42:16 10° W 17:04:42 41° SSW 17:23:03 10° SE daylight
21 May - 19:15:41 10° W 19:30:48 21° SW 19:42:52 10° S daylight
22 May - 10:38:26 10° S 10:53:10 27° SE 11:11:52 10° E daylight
22 May - 13:00:31 10° SW 13:20:30 45° SSE 13:43:16 10° ESE daylight
22 May - 15:27:17 10° WSW 15:49:54 46° SSW 16:10:35 10° SE daylight
22 May - 17:58:00 10° W 18:17:40 30° SW 18:33:24 10° SSE daylight
23 May - 09:29:40 10° SSE 09:40:18 18° SE 09:53:28 10° E daylight
23 May - 11:48:21 10° SSW 12:05:53 39° SSE 12:27:59 10° E daylight
23 May - 14:13:12 10° WSW 14:34:43 47° S 14:57:09 10° ESE daylight
23 May - 16:41:54 10° W 17:03:40 38° SSW 17:22:17 10° SSE daylight
23 May - 19:16:22 10° W 19:29:29 17° SW 19:40:34 10° SSW daylight
24 May - 10:37:18 10° SSW 10:52:02 31° SE 11:11:40 10° E daylight
24 May - 13:00:02 10° SW 13:19:36 46° S 13:42:47 10° ESE daylight
24 May - 15:26:56 10° WSW 15:48:58 44° SSW 16:09:57 10° SE daylight
24 May - 17:57:57 10° W 18:16:28 27° SW 18:32:00 10° S daylight
25 May - 09:27:45 10° S 09:39:04 21° SE 09:53:55 10° E daylight
25 May - 11:47:46 10° SW 12:04:55 41° SSE 12:27:30 10° E daylight
25 May - 14:12:53 10° WSW 14:33:50 47° S 14:56:34 10° ESE daylight
25 May - 16:41:41 10° W 17:02:35 35° SSW 17:21:15 10° SSE daylight
25 May - 19:17:59 10° W 19:28:06 14° WSW 19:37:10 10° SSW daylight
26 May - 08:22:11 10° SE 08:26:56 12° ESE 08:32:18 10° ESE daylight
26 May - 10:36:28 10° SSW 10:51:00 33° SE 11:11:16 10° E daylight
26 May - 12:59:42 10° WSW 13:18:44 46° S 13:42:11 10° ESE daylight
26 May - 15:26:42 10° W 15:48:00 42° SSW 16:09:06 10° SE daylight
26 May - 17:58:13 10° W 18:15:11 23° SW 18:30:08 10° S daylight
27 May - 09:26:25 10° S 09:37:57 24° SE 09:53:55 10° E daylight
27 May - 11:47:21 10° SW 12:04:03 43° SSE 12:26:53 10° ESE daylight
27 May - 14:12:40 10° WSW 14:32:59 46° S 14:55:49 10° SE daylight
27 May - 16:41:38 10° W 17:01:26 32° SW 17:19:54 10° SSE daylight
27 May - 19:22:24 10° WSW 19:26:39 11° WSW 19:30:44 10° SW daylight
